[[{"header":{"parameterUnit":"m.s-1","parameterCategory":1,"la1":30.2991,"la2":30.254,"lo1":-89.0895,"lo2":-89.0444,"dy":0.0017,"dx":0.0017,"nx":28,"ny":28,"refTime":"2023-08-28T03:00:00:Z","depth":0,"parameterNumber":2,"parameterNumberName":"U-component_of_WINDS"},"data":[0,0,0,0,0,0,0,0,0,0,0,0,0,0,0,0,0,0,0,0,0,0,0,0,0,0,0,0,0,0,0,0,0,0,0,0,0,0,0,0,0,0,0,0,0,0,0,0,0,0,0,0,0,0,0,0,0,0,-0.6341,-0.6341,0,-0.6333,-0.6333,-0.6333,-0.6307,-0.6306,-0.6306,-0.6305,-0.6298,-0.6298,-0.6299,0,0,0,0,0,0,0,0,0,0,0,0,0,-0.6333,-0.6333,-0.6341,-0.6341,-0.6341,-0.6333,-0.6333,-0.6333,-0.6307,-0.6306,-0.6305,-0.6305,-0.6298,-0.6298,-0.6299,0,0,0,0,0,0,0,0,0,0,0,0,0,-0.6332,-0.6333,-0.6341,-0.6327,-0.6325,-0.6333,-0.6333,-0.6333,-0.6307,-0.6306,-0.6305,-0.6304,-0.6298,-0.6298,-0.6299,-0.632,0,0,-0.63,-0.6301,0,0,0,0,0,0,0,0,-0.6332,-0.6332,-0.6329,-0.6328,-0.6326,-0.632,-0.6328,-0.6329,-0.6307,-0.6314,-0.6305,-0.6304,-0.6306,-0.6306,-0.6306,-0.632,-0.6319,-0.63,-0.6301,-0.6301,-0.6301,0,0,0,0,0,0,0,-0.6332,-0.6333,-0.6338,-0.6329,-0.6327,-0.6321,-0.632,-0.6328,-0.6315,-0.6313,-0.6311,-0.6311,-0.6305,-0.6306,-0.6306,-0.6319,-0.63,-0.6301,-0.6301,-0.6301,-0.635,-0.635,0,0,0,0,0,0,-0.6334,-0.6333,-0.6338,-0.6338,-0.6327,-0.6322,-0.632,-0.6323,-0.6315,-0.6313,-0.6312,-0.631,-0.6305,-0.6305,-0.6306,-0.633,-0.6301,-0.6301,-0.6302,-0.6349,-0.635,-0.6351,0,0,0,0,0,0,-0.6334,-0.6335,-0.6339,-0.6335,-0.6335,-0.6323,-0.6326,-0.6323,-0.6324,-0.6314,-0.6311,-0.6315,-0.6305,-0.6305,-0.6317,-0.6329,-0.6302,-0.6302,-0.6347,-0.6349,-0.635,-0.6379,0,0,0,0,0,0,-0.6334,-0.6335,-0.6343,-0.6335,-0.6335,-0.6349,-0.6327,-0.6324,-0.6325,-0.6322,-0.6316,-0.6314,-0.6304,-0.6316,-0.6317,-0.6329,-0.6303,-0.6346,-0.6348,-0.635,-0.6376,-0.6381,-0.6385,0,0,0,0,0,-0.6334,-0.6352,-0.6344,-0.6344,-0.6345,-0.635,-0.635,-0.6338,-0.6326,-0.6334,-0.6327,-0.6314,-0.6328,-0.6317,-0.6318,-0.6331,-0.6345,-0.6348,-0.635,-0.6375,-0.638,-0.6384,0,0,0,0,0,0,-0.6362,-0.635,-0.6341,-0.6357,-0.6355,-0.6346,-0.6355,-0.6344,-0.6345,-0.6343,-0.6328,-0.6327,-0.6341,-0.6337,-0.6326,-0.6351,-0.6334,-0.6337,-0.6353,-0.6358,-0.6362,-0.6362,-0.6303,0,0,0,0,0,-0.637,-0.6375,-0.6365,-0.638,-0.6379,-0.6367,-0.6369,-0.636,-0.6357,-0.6356,-0.6351,-0.6349,-0.6352,-0.6355,-0.6358,-0.6376,-0.6374,-0.6385,-0.6389,-0.6393,-0.6395,-0.6404,-0.6409,-0.6358,-0.6358,-0.6358,0,0,-0.6386,-0.638,-0.6385,-0.6385,-0.6382,-0.6388,-0.6367,-0.6374,-0.6378,-0.6358,-0.6368,-0.6364,-0.636,-0.6375,-0.6382,-0.6373,-0.6409,-0.6395,-0.6398,-0.6399,-0.6407,-0.6411,-0.6416,-0.6359,-0.6359,-0.6359,0,0,-0.6419,-0.6415,-0.6427,-0.6424,-0.642,-0.6413,-0.6416,-0.6408,-0.6404,-0.6415,-0.6399,-0.6404,-0.6411,-0.6409,-0.6409,-0.6441,-0.6429,-0.6443,-0.6464,-0.6473,-0.6477,-0.648,-0.6491,-0.6495,-0.6445,-0.6445,-0.6445,0,-0.644,-0.6448,-0.6434,-0.6442,-0.6443,-0.6424,-0.6436,-0.6434,-0.6432,-0.6432,-0.6423,-0.6431,-0.6427,-0.6441,-0.6449,-0.645,-0.6452,-0.6443,-0.6477,-0.648,-0.6483,-0.6494,-0.6498,-0.6447,-0.6446,-0.6446,-0.6446,0,-0.6473,-0.6479,-0.6489,-0.6487,-0.6488,-0.6498,-0.6487,-0.649,-0.6481,-0.6474,-0.6485,-0.648,-0.6481,-0.6484,-0.6475,-0.6497,-0.6491,-0.648,-0.6462,-0.649,-0.65,-0.6503,-0.6449,-0.6448,-0.6448,-0.6448,0,0,-0.6523,-0.6513,-0.6517,-0.6515,-0.6509,-0.6514,-0.6523,-0.6524,-0.6527,-0.6526,-0.6533,-0.6539,-0.6528,-0.6528,-0.6519,-0.6527,-0.6552,-0.6514,-0.6514,-0.6521,-0.6575,-0.6584,-0.6589,-0.6544,-0.6545,-0.6546,-0.6575,0,-0.6554,-0.6569,-0.6557,-0.6574,-0.6579,-0.6561,-0.6569,-0.6566,-0.656,-0.6564,-0.6558,-0.6562,-0.6547,-0.6547,-0.6554,-0.6548,-0.6563,-0.6545,-0.6551,-0.6551,-0.6552,-0.6594,-0.6603,-0.6631,-0.6579,-0.658,-0.658,0,-0.6592,-0.6592,-0.6609,-0.6602,-0.6604,-0.6611,-0.6611,-0.6614,-0.6611,-0.6606,-0.6606,-0.6595,-0.6603,-0.6587,-0.6598,-0.6586,-0.6588,-0.6585,-0.6586,-0.6586,-0.6567,-0.6594,-0.664,-0.6644,-0.6586,-0.6585,-0.6585,0,-0.6626,-0.663,-0.6641,-0.664,-0.6632,-0.6638,-0.6635,-0.663,-0.6632,-0.6632,-0.6633,-0.6634,-0.6635,-0.6636,-0.6625,-0.6614,-0.6638,-0.662,-0.6634,-0.6634,-0.6639,-0.6639,-0.6686,-0.6641,-0.6641,-0.6641,-0.6641,0,-0.6661,-0.6672,-0.6656,-0.6663,-0.6675,-0.6661,-0.6674,-0.6669,-0.6665,-0.667,-0.6656,-0.6661,-0.6647,-0.6651,-0.6643,-0.6653,-0.6654,-0.665,-0.6647,-0.6651,-0.6651,-0.6651,-0.6649,-0.6642,-0.6642,-0.6642,-0.6641,0,-0.6701,-0.6691,-0.6701,-0.6693,-0.6691,-0.67,-0.6693,-0.6698,-0.6692,-0.6699,-0.6699,-0.6689,-0.6692,-0.6682,-0.6684,-0.6679,-0.6694,-0.6689,-0.6695,-0.6693,-0.6707,-0.6706,-0.6755,-0.6761,-0.6713,-0.6714,-0.6714,0,-0.6724,-0.6732,-0.6724,-0.6727,-0.6724,-0.6729,-0.673,-0.6717,-0.6719,-0.6715,-0.6722,-0.6724,-0.6725,-0.6733,-0.6725,-0.6727,-0.6721,-0.6738,-0.6721,-0.6724,-0.6721,-0.672,-0.6721,-0.6742,-0.6742,-0.6743,-0.6743,0,-0.6766,-0.6761,-0.6763,-0.6763,-0.6765,-0.6764,-0.6763,-0.6766,-0.6752,-0.6755,-0.6759,-0.676,-0.6762,-0.6765,-0.6765,-0.6762,-0.675,-0.6748,-0.6752,-0.6755,-0.6758,-0.6756,-0.6704,-0.6747,-0.6747,-0.6747,-0.6746,-0.6746,-0.6798,-0.6804,-0.68,-0.6802,-0.68,-0.6799,-0.6804,-0.6797,-0.68,-0.6801,-0.6793,-0.6798,-0.6794,-0.6793,-0.6791,-0.6795,-0.6787,-0.6792,-0.6793,-0.6795,-0.6797,-0.6758,-0.6795,-0.6795,-0.6795,-0.6795,-0.6795,0,-0.6839,-0.6835,-0.6838,-0.6836,-0.6838,-0.6827,-0.6825,-0.6827,-0.6832,-0.683,-0.6831,-0.6835,-0.6838,-0.683,-0.6832,-0.6836,-0.6831,-0.6837,-0.6836,-0.6836,-0.6804,-0.6801,-0.6841,-0.6841,-0.6841,-0.6841,-0.6841,-0.6841,-0.686,-0.687,-0.6864,-0.6872,-0.6868,-0.6873,-0.6873,-0.6872,-0.687,-0.6875,-0.6876,-0.6872,-0.6867,-0.6868,-0.687,-0.6868,-0.6869,-0.6877,-0.6873,-0.6843,-0.6838,-0.6834,-0.6831,-0.6877,-0.6877,-0.6904,-0.6904,-0.6905]},{"header":{"parameterUnit":"m.s-1","parameterCategory":1,"la1":30.2991,"la2":30.254,"lo1":-89.0895,"lo2":-89.0444,"dy":0.0017,"dx":0.0017,"nx":28,"ny":28,"refTime":"2023-08-28T03:00:00:Z","depth":0,"parameterNumber":3,"parameterNumberName":"V-component_of_WINDS"},"data":[0,0,0,0,0,0,0,0,0,0,0,0,0,0,0,0,0,0,0,0,0,0,0,0,0,0,0,0,0,0,0,0,0,0,0,0,0,0,0,0,0,0,0,0,0,0,0,0,0,0,0,0,0,0,0,0,0,0,-0.8692,-0.8693,0,-0.8721,-0.8721,-0.8721,-0.8741,-0.8741,-0.8741,-0.8741,-0.8769,-0.877,-0.877,0,0,0,0,0,0,0,0,0,0,0,0,0,-0.8654,-0.8655,-0.8692,-0.8693,-0.8693,-0.8721,-0.8721,-0.8721,-0.8741,-0.8741,-0.8741,-0.8741,-0.8769,-0.877,-0.877,0,0,0,0,0,0,0,0,0,0,0,0,0,-0.8675,-0.8655,-0.8692,-0.8706,-0.8708,-0.872,-0.8721,-0.8721,-0.8741,-0.8741,-0.8741,-0.8741,-0.8769,-0.8769,-0.877,-0.8771,0,0,-0.8773,-0.8773,0,0,0,0,0,0,0,0,-0.8674,-0.8677,-0.8704,-0.8705,-0.8707,-0.8727,-0.8718,-0.8738,-0.8741,-0.8728,-0.8741,-0.8742,-0.8755,-0.8757,-0.8762,-0.8772,-0.8774,-0.8773,-0.8774,-0.8774,-0.8774,0,0,0,0,0,0,0,-0.8672,-0.8675,-0.8703,-0.8704,-0.8706,-0.871,-0.8714,-0.8722,-0.874,-0.8729,-0.8731,-0.8734,-0.8756,-0.8761,-0.8762,-0.8774,-0.8773,-0.8774,-0.8774,-0.8775,-0.8786,-0.8786,0,0,0,0,0,0,-0.8669,-0.8674,-0.8703,-0.8704,-0.8691,-0.8711,-0.8715,-0.8721,-0.874,-0.8743,-0.8734,-0.8735,-0.8759,-0.8761,-0.8764,-0.8765,-0.8774,-0.8775,-0.8775,-0.8787,-0.8786,-0.8786,0,0,0,0,0,0,-0.8668,-0.8671,-0.8701,-0.869,-0.8694,-0.8711,-0.8718,-0.8721,-0.8726,-0.8743,-0.8746,-0.8736,-0.8759,-0.8762,-0.8769,-0.8767,-0.8775,-0.8776,-0.8787,-0.8786,-0.8786,-0.8769,0,0,0,0,0,0,-0.8667,-0.8671,-0.8672,-0.869,-0.8694,-0.8707,-0.8718,-0.8721,-0.8728,-0.8729,-0.8746,-0.8749,-0.876,-0.8768,-0.877,-0.8768,-0.8777,-0.8787,-0.8787,-0.8786,-0.877,-0.8769,-0.8767,0,0,0,0,0,-0.8665,-0.8666,-0.8672,-0.8675,-0.8696,-0.8707,-0.8709,-0.8723,-0.8727,-0.8728,-0.8739,-0.8748,-0.8767,-0.8768,-0.8771,-0.8769,-0.8787,-0.8787,-0.8786,-0.8771,-0.8769,-0.8767,0,0,0,0,0,0,-0.8647,-0.8668,-0.8675,-0.8681,-0.8692,-0.871,-0.8712,-0.872,-0.8729,-0.8731,-0.8746,-0.875,-0.8755,-0.8763,-0.8764,-0.8771,-0.8778,-0.8778,-0.8765,-0.8764,-0.8762,-0.876,-0.8778,0,0,0,0,0,-0.8644,-0.8651,-0.8669,-0.8673,-0.8678,-0.8694,-0.8699,-0.8708,-0.872,-0.8724,-0.8736,-0.8746,-0.8754,-0.8759,-0.8768,-0.8771,-0.8775,-0.8772,-0.877,-0.8769,-0.8768,-0.877,-0.8769,-0.8784,-0.8784,-0.8784,0,0,-0.8637,-0.865,-0.8653,-0.867,-0.8679,-0.8686,-0.8697,-0.8704,-0.8709,-0.8725,-0.8732,-0.8741,-0.8754,-0.8759,-0.8762,-0.8766,-0.8765,-0.8768,-0.8767,-0.8767,-0.877,-0.8768,-0.8767,-0.8784,-0.8784,-0.8784,0,0,-0.8628,-0.8639,-0.8643,-0.8652,-0.8666,-0.8676,-0.8677,-0.8694,-0.87,-0.8708,-0.872,-0.8726,-0.8739,-0.8748,-0.8754,-0.8748,-0.8756,-0.875,-0.8741,-0.8743,-0.8742,-0.8741,-0.8738,-0.8737,-0.875,-0.875,-0.8749,0,-0.8618,-0.8629,-0.8644,-0.865,-0.8656,-0.8671,-0.8675,-0.8683,-0.8699,-0.8703,-0.8707,-0.8725,-0.8734,-0.8741,-0.874,-0.8744,-0.8745,-0.8748,-0.8741,-0.874,-0.8739,-0.8737,-0.8736,-0.8749,-0.8749,-0.8749,-0.8749,0,-0.8616,-0.8623,-0.8625,-0.864,-0.8647,-0.8652,-0.8666,-0.8671,-0.8679,-0.8689,-0.8696,-0.8708,-0.8719,-0.8721,-0.873,-0.8729,-0.8731,-0.8738,-0.8746,-0.8737,-0.8735,-0.8734,-0.8747,-0.8748,-0.8748,-0.8748,0,0,-0.8597,-0.8619,-0.862,-0.8626,-0.8643,-0.8649,-0.8654,-0.8665,-0.8669,-0.8679,-0.8683,-0.8694,-0.8701,-0.8707,-0.8717,-0.8718,-0.8712,-0.8725,-0.8725,-0.8722,-0.8711,-0.8706,-0.8705,-0.8718,-0.8717,-0.8717,-0.871,0,-0.859,-0.8601,-0.8613,-0.8619,-0.8626,-0.864,-0.8645,-0.8655,-0.8664,-0.867,-0.868,-0.8688,-0.8696,-0.87,-0.8702,-0.8712,-0.871,-0.8713,-0.8721,-0.8721,-0.8717,-0.8704,-0.8698,-0.8691,-0.871,-0.871,-0.8709,0,-0.8584,-0.8594,-0.86,-0.8616,-0.8619,-0.8623,-0.8634,-0.864,-0.8651,-0.8658,-0.8665,-0.8675,-0.8681,-0.8687,-0.8695,-0.8697,-0.8701,-0.8706,-0.8706,-0.8707,-0.8715,-0.8704,-0.8689,-0.8688,-0.8708,-0.8708,-0.8709,0,-0.8569,-0.8583,-0.8589,-0.8595,-0.8613,-0.8615,-0.8623,-0.8635,-0.864,-0.8649,-0.8653,-0.8662,-0.8668,-0.8675,-0.8686,-0.869,-0.8693,-0.87,-0.8698,-0.8697,-0.8697,-0.8697,-0.8682,-0.87,-0.87,-0.87,-0.87,0,-0.856,-0.8563,-0.8583,-0.8586,-0.859,-0.8605,-0.8608,-0.8617,-0.8627,-0.8632,-0.8645,-0.8649,-0.8665,-0.8671,-0.868,-0.8685,-0.8687,-0.8692,-0.8694,-0.8691,-0.869,-0.8693,-0.8694,-0.87,-0.87,-0.87,-0.87,0,-0.8544,-0.8557,-0.8564,-0.858,-0.8585,-0.8587,-0.8601,-0.8604,-0.8614,-0.862,-0.8622,-0.8637,-0.8645,-0.8657,-0.8669,-0.8675,-0.8678,-0.8682,-0.8674,-0.8675,-0.8671,-0.8671,-0.8658,-0.8657,-0.8676,-0.8676,-0.8676,0,-0.8537,-0.854,-0.8557,-0.8561,-0.8568,-0.8575,-0.8581,-0.8595,-0.86,-0.8613,-0.8615,-0.8624,-0.8632,-0.8643,-0.8655,-0.8663,-0.8668,-0.8662,-0.8669,-0.8665,-0.8667,-0.8667,-0.8667,-0.8661,-0.866,-0.866,-0.866,0,-0.8524,-0.853,-0.8538,-0.8548,-0.8555,-0.8563,-0.8572,-0.8575,-0.8591,-0.8596,-0.8604,-0.861,-0.8622,-0.863,-0.864,-0.8647,-0.8656,-0.8658,-0.8658,-0.8654,-0.8649,-0.8651,-0.8669,-0.8658,-0.8658,-0.8658,-0.8659,-0.8659,-0.8513,-0.8516,-0.8528,-0.8536,-0.8544,-0.8552,-0.8556,-0.8566,-0.8573,-0.8584,-0.8592,-0.8599,-0.861,-0.8624,-0.8631,-0.8637,-0.8641,-0.864,-0.864,-0.864,-0.8638,-0.8648,-0.8638,-0.8639,-0.8639,-0.8639,-0.8639,0,-0.85,-0.8508,-0.8516,-0.8528,-0.8534,-0.8542,-0.8552,-0.8557,-0.8563,-0.8573,-0.858,-0.8589,-0.8597,-0.8609,-0.8617,-0.862,-0.8624,-0.8621,-0.8621,-0.8623,-0.8634,-0.8634,-0.8618,-0.8618,-0.8618,-0.8618,-0.8618,-0.8618,-0.8494,-0.85,-0.8507,-0.8516,-0.8525,-0.8532,-0.8537,-0.8544,-0.8552,-0.8561,-0.8568,-0.8576,-0.8586,-0.8596,-0.8603,-0.8606,-0.8609,-0.8605,-0.8609,-0.862,-0.8622,-0.8624,-0.8623,-0.8605,-0.8605,-0.8597,-0.8597,-0.8597]}]]